Regional Weather Roundup
Issued by NWS Newport/Morehead, NC

Current Version | Previous Version | Graphics & Text | Print | Product List | Glossary Off
Versions: 1 2 3 4 5 6 7 8 9 10 11 12 13 14 15 16 17 18 19 20 21 22 23 24 25 26 27 28 29 30 31 32 33 34 35 36 37 38 39 40 41 42 43 44 45 46 47 48 49 50

000
ASUS42 KMHX 250225
RWRMHX
WEATHER ROUNDUP FOR EASTERN NORTH CAROLINA
NATIONAL WEATHER SERVICE NEWPORT/MOREHEAD CITY NC
1000 PM EDT MON JUL 24 2017

NOTE: "FAIR" INDICATES FEW OR NO CLOUDS BELOW 12,000 FEET
WITH NO SIGNIFICANT WEATHER AND/OR OBSTRUCTIONS TO VISIBILITY

NCZ015>017-031-032-045>047-102-103-250300-
NORTH COAST

CITY           SKY/WX    TMP DP  RH WIND       PRES   REMARKS
EDENTON        CLEAR     84  76  76 SW7       29.93S
ELIZABETH CITY CLEAR     81  78  91 SW7       29.92R
KITTY HAWK     CLEAR     82  77  84 SW6       29.92R
MANTEO         CLEAR     82  77  87 SW10      29.93R

$$

NCZ045>047-081-094-103-104-250300-
CENTRAL COAST

CITY           SKY/WX    TMP DP  RH WIND       PRES   REMARKS
FRISCO         CLEAR     79  76  90 SW12      29.96R

$$

NCZ095-097-098-100-101-250300-
SOUTHERN COAST

CITY           SKY/WX    TMP DP  RH WIND       PRES   REMARKS
BEAUFORT       PTCLDY    81  78  91 SW16      29.96S
CEDAR ISLAND   NOT AVBL
JACKSONVILLE   CLEAR     81  77  88 SW8       29.95S
PINEY ISLAND   CLEAR    N/A N/A N/A S10       29.95S
WILMINGTON     CLOUDY    81  76  84 SW8       29.96S


$$

NCZ011>013-027>030-043-044-078>080-089-090>093-098-250300-
COASTAL PLAIN

CITY           SKY/WX    TMP DP  RH WIND       PRES   REMARKS
AHOSKIE          N/A     79  75  89 S3        29.92R
CLINTON        MOCLDY    80  77  92 CALM      29.96R
ELIZABETHTOWN  NOT AVBL
GOLDSBORO      CLOUDY    82  78  87 CALM      29.93S
GREENVILLE     CLEAR     81  73  78 SW3       29.96R
HAVELOCK       NOT AVBL
KENANSVILLE    PTCLDY    79  75  89 CALM      29.96R
KINSTON        CLEAR     79  73  83 CALM      29.95R
NEW BERN       PTCLDY    80  78  94 S7        29.96R
RICHLANDS      CLOUDY    80  76  87 SW9       29.96R
ROCKY MOUNT    CLEAR     80  77  90 S7        29.93S
WASHINGTON     CLEAR     81  74  80 SW5       29.95R
WHITEVILLE     CLOUDY    75  72  92 SW3       29.98R

$$

AMZ130-135-150-152-154-156-158-170-250-252-270-ANZ085-086-088-633-658-670-250300-
MARINE OBSERVATIONS

STATION/POSITION TIME  TEMP    WIND        PRES    WAVE   SWELL
                       AIR SEA DIR/SP/G            HT/PER HT/PER
                 (UTC) (F)     (DEG/KT/KT) (MB)    (FT/S) (FT/S)
CHESAPEAKE LIGHT NOT AVBL
64 E VA BEACH    0150   80 79  220/ 16/ 17 1013.0    4/ 8   2/ 8
DUCK             0200   84 66  220/  9/ 12 1012.7
2 E DUCK         0200      73                N/A     2/10
OREGON INLET     0200   82 84  210/ 15/ 19 1013.4
13E OREGON INLT  0148      70                N/A     4/ 7   2/11
HATTERAS CG      0200   79 79  230/ 12/ 16 1014.3
DIAMOND BUOY     0150   83 84  240/ 23/ 25 1014.1    6/ 7   2/11
CAPE LOOKOUT     0200   81     230/ 11/ 14 1014.4
BEAUFORT LAB     0200   81 80  220/  8/ 13 1013.9
30 SE NEW RVR IN 0208   81 83  240/ 17/ 21 1015.0
30 SE NEW RVR IN 0213      83                N/A     6/ 7   2/11
27 SE WRIGHTSVLE 0208   81 83  220/ 17/ 23 1014.8
5 SE WRIGHTSVLE  0208   81 81  220/ 12/ 16 1014.6
225 S CAPE HAT   0150   83 83  210/ 16/ 19 1018.4    6/ 7   2/ 8
41 SE CHARLESTON 0210   83 83  220/ 16/ 21 1015.9

$$




USA.gov is the U.S. government's official web portal to all federal, state and local government web resources and services.